Probability
4 6 11 15 13 6 1 0 0 0 0 0 0 0 0 1 2 4 8 17 32 42 44 44 45 45 43 40 34 26 22 20 19 16 12 11 9 7 6 7 9 9 7 7 7 6 4 3 2
3 6 10 12 8 3 0 0 0 0 0 0 0 0 1 2 4 7 11 20 32 40 43 44 45 46 44 40 35 29 23 21 20 18 14 12 9 7 6 6 8 9 9 8 8 7 6 5 5
4 7 10 9 4 1 0 0 0 0 0 0 0 1 2 4 8 12 17 23 31 39 43 44 45 46 45 40 36 31 25 22 21 20 17 13 10 9 7 6 8 10 10 10 10 9 8 7 7
6 8 9 6 3 1 0 0 0 0 0 0 1 2 4 7 12 17 21 25 33 40 43 45 45 46 46 41 36 32 26 22 22 21 17 13 11 11 10 8 9 10 11 11 11 10 9 8 8
8 8 6 3 1 0 0 0 1 0 0 1 2 4 6 11 17 20 21 26 35 41 44 46 46 46 46 43 38 33 27 22 21 20 17 14 13 13 11 10 9 10 10 11 11 9 9 9 9
6 6 3 1 0 0 0 0 0 0 0 1 2 4 7 13 19 22 22 27 36 42 44 45 47 48 47 44 39 35 29 24 21 20 17 16 15 13 10 10 10 10 10 10 10 8 8 9 10
3 2 1 0 0 0 0 0 0 0 0 1 2 4 8 14 20 23 25 30 37 43 45 45 46 47 45 42 39 35 31 27 22 19 17 17 16 13 10 9 9 9 10 10 9 9 8 9 10
1 1 0 0 0 0 0 0 0 0 0 2 3 5 9 15 20 23 28 33 38 43 45 45 44 43 42 39 36 33 29 26 22 17 15 15 15 12 9 8 8 9 10 10 10 9 9 9 9
1 1 0 0 0 0 0 0 0 0 1 4 6 8 12 17 21 24 28 32 37 40 42 42 41 37 36 35 32 27 23 20 17 14 13 13 13 10 8 6 7 9 10 10 10 10 9 8 8
1 0 0 0 0 0 0 0 0 0 2 5 8 12 15 18 22 26 27 30 33 36 37 37 36 33 31 30 28 23 19 16 13 13 13 12 11 9 7 6 6 7 8 8 9 9 9 8 7
1 0 0 0 0 0 0 0 0 0 1 4 8 12 15 18 23 26 26 28 31 33 33 33 31 29 27 27 25 21 19 17 13 12 12 11 10 9 8 6 5 5 6 7 8 8 8 7 6
0 0 0 0 0 0 0 0 0 0 1 4 7 10 12 16 21 24 25 25 27 30 30 29 28 26 24 25 24 22 21 19 15 12 11 10 10 10 9 7 5 6 6 8 9 9 8 6 5
0 0 0 0 0 0 0 0 0 0 1 4 7 9 11 14 18 21 23 23 24 26 26 26 25 22 20 22 23 22 21 19 16 12 10 10 10 10 9 7 7 8 8 8 9 9 9 7 5
0 0 0 0 0 0 0 0 0 0 1 4 7 9 10 12 14 16 19 20 21 22 22 22 21 18 17 20 21 22 20 17 14 11 10 10 9 9 8 7 7 8 9 9 9 10 9 8 6
0 0 0 0 0 0 0 0 0 0 1 4 7 9 10 11 11 12 13 16 19 20 18 18 18 15 14 16 18 19 18 14 11 9 9 9 8 7 6 6 7 8 9 10 10 10 10 9 7
0 0 0 0 0 0 0 0 0 0 1 3 6 8 9 9 9 9 10 12 16 17 15 15 16 13 11 12 15 16 15 13 9 8 7 7 6 5 4 5 6 7 9 10 10 11 11 9 7
0 0 0 0 0 0 0 0 0 0 0 2 5 7 7 7 7 8 9 11 14 13 13 13 13 12 10 10 12 13 13 10 8 7 6 6 6 4 3 4 6 7 8 9 8 9 9 7 6
0 0 0 0 0 0 0 0 0 0 0 2 6 7 6 6 6 7 8 10 11 11 11 11 10 10 9 9 9 10 10 8 7 6 6 6 5 4 3 4 6 7 7 6 5 5 5 5 4
0 0 0 0 0 0 0 0 0 0 0 2 5 6 5 4 5 6 8 9 10 10 11 9 8 10 10 8 7 8 8 7 6 6 6 5 4 3 3 4 4 4 3 3 3 2 2 3 3
0 0 0 0 0 0 0 0 0 0 0 1 2 4 4 3 4 4 5 7 9 11 11 9 7 8 9 8 6 7 7 7 6 6 6 4 3 2 2 2 2 1 1 1 2 1 1 2 3
0 0 0 0 0 0 0 0 0 0 0 0 1 2 3 3 3 2 3 5 8 10 10 9 7 7 7 7 6 6 6 6 6 6 5 3 1 1 1 1 0 0 0 0 0 0 1 2 3
0 0 0 0 0 0 0 0 0 0 0 0 0 1 3 3 2 1 1 3 6 8 9 7 6 6 6 5 6 5 5 5 6 6 5 2 0 0 0 0 0 0 0 0 0 0 0 1 2
0 0 0 0 0 0 0 0 0 0 0 0 0 1 2 2 2 1 1 3 5 6 6 5 4 5 6 6 5 5 4 4 5 6 4 1 0 0 0 0 0 0 0 0 0 0 0 0 1
0 0 0 0 0 0 0 0 0 0 0 0 0 0 1 1 1 0 1 2 4 5 5 4 3 4 6 6 6 6 4 3 3 3 2 1 0 0 0 0 0 0 0 0 0 0 0 0 0
0 0 0 0 0 0 0 0 0 0 0 0 0 0 0 0 0 0 1 2 3 4 5 4 4 5 6 6 6 6 5 3 2 1 1 0 0 0 0 0 0 0 0 0 0 0 0 0 0
0 0 0 0 0 0 0 0 0 0 0 0 0 0 0 0 0 0 1 3 3 3 3 4 5 6 6 6 6 6 6 4 3 2 1 0 0 0 0 0 0 0 0 0 0 0 0 0 0
0 0 0 0 0 0 0 0 0 0 0 0 0 0 0 0 0 1 2 3 3 3 2 2 4 5 6 6 6 6 6 5 4 3 2 1 0 0 0 0 0 0 0 0 0 0 0 0 0
0 0 0 0 0 0 0 0 0 0 0 0 0 0 0 1 0 1 2 3 3 2 1 1 2 3 4 5 6 6 6 5 4 3 3 1 0 0 0 0 0 0 0 0 0 0 0 0 0
0 0 0 0 0 0 0 0 0 0 0 0 0 0 0 0 0 1 2 3 3 2 1 0 1 1 2 3 4 4 4 4 3 3 3 2 0 0 0 0 0 0 0 0 0 0 0 0 0
0 0 0 0 0 0 0 0 0 0 0 0 0 0 0 0 0 1 2 3 3 1 0 0 0 0 1 2 3 3 3 3 3 3 3 1 0 0 0 0 0 0 0 0 0 0 0 0 0
Wind_Speed
10 10 6 2 3 6 10 9 7 6 4 2 2 3 2 2 1 4 3 4 9 12 13 12 11 10 10 10 10 9 9 9 10 9 9 10 10 10 10 10 10 10 10 10 10 10 11 10 10
8 7 3 3 5 8 9 10 9 5 2 1 1 3 2 1 3 6 4 5 9 11 12 11 11 10 10 10 9 9 9 9 9 9 9 9 10 9 9 9 9 10 10 10 10 10 10 10 10
9 6 4 4 7 10 8 5 4 3 2 1 1 2 2 1 3 4 5 6 8 9 11 11 11 10 10 10 10 9 9 9 9 9 9 9 9 9 9 9 10 10 10 9 9 9 9 9 9
4 3 4 7 13 12 9 5 1 2 3 2 1 1 1 2 2 5 6 6 8 8 10 11 11 11 10 10 10 9 9 9 9 9 9 9 8 9 9 9 9 9 9 9 9 9 10 9 9
3 3 6 10 14 12 9 5 3 4 3 2 2 2 1 2 5 7 5 6 7 8 9 12 11 11 10 10 10 9 9 9 9 8 8 8 8 8 9 9 9 9 9 9 9 9 9 9 8
3 4 7 11 13 10 7 5 4 4 3 2 2 3 2 2 4 4 4 5 6 7 8 10 11 10 9 9 9 9 9 9 8 8 8 8 9 8 8 9 9 9 9 8 8 8 8 8 8
4 4 9 11 10 10 6 4 4 3 3 2 2 2 2 2 3 2 2 4 5 7 8 8 8 9 9 8 8 8 8 8 8 8 8 8 8 8 8 8 9 9 8 8 8 8 7 8 7
3 4 8 10 10 9 4 4 3 4 3 2 2 2 1 2 3 2 2 3 5 5 6 6 7 7 7 7 8 8 8 8 8 8 8 8 7 7 7 7 7 8 8 8 7 8 7 7 6
3 5 8 8 7 6 3 3 4 4 3 3 2 2 1 3 2 2 2 2 3 4 4 5 6 6 6 6 8 8 8 8 8 7 7 6 4 4 4 6 6 7 7 7 7 7 6 5 4
3 5 8 6 5 5 5 4 4 4 5 3 1 1 2 2 1 2 2 2 3 4 4 4 4 5 5 5 6 5 5 6 5 5 5 3 3 3 4 5 6 6 6 6 6 5 5 3 2
3 6 7 7 7 7 7 6 4 5 6 4 2 1 2 3 2 3 3 3 3 4 4 4 3 5 5 4 4 3 3 3 4 5 4 3 3 3 3 3 3 3 4 3 3 3 2 2 2
5 7 7 8 7 8 8 7 6 7 7 4 2 2 3 4 4 4 3 3 2 3 3 4 4 4 4 4 4 4 3 3 3 4 4 3 3 3 3 2 2 2 2 2 2 2 2 2 2
6 8 8 8 8 8 9 9 8 9 8 3 2 3 4 4 4 3 3 3 2 2 2 3 4 3 3 3 3 3 3 3 3 3 4 4 3 3 3 2 2 2 2 2 2 2 2 2 2
4 7 9 8 7 7 9 10 9 8 6 4 5 5 5 4 4 4 4 3 3 2 2 2 4 3 3 3 3 3 3 3 3 3 4 4 3 3 3 2 2 2 2 2 2 2 2 2 2
5 7 9 7 6 6 7 9 8 7 5 6 6 5 5 5 4 4 4 3 2 2 2 2 3 4 3 3 3 3 3 3 2 2 3 4 3 3 3 3 2 2 2 2 1 2 2 2 2
6 5 5 4 4 4 5 9 7 5 5 6 5 5 4 4 4 3 3 3 3 2 2 2 2 3 3 2 2 2 3 4 3 2 2 3 3 3 3 3 2 2 2 1 2 2 2 2 2
3 4 7 6 5 4 6 9 7 5 5 6 4 3 3 3 3 2 2 3 3 3 3 2 2 3 3 2 2 2 3 3 3 3 2 2 2 3 3 3 3 3 2 1 1 2 2 2 2
4 6 8 8 5 5 8 10 8 6 5 5 3 2 3 2 2 2 2 3 3 3 3 3 3 2 3 3 2 1 3 3 2 2 2 2 2 2 2 3 3 3 2 2 1 1 2 2 2
6 7 9 10 7 6 9 11 9 7 5 4 2 2 3 3 1 2 2 3 3 3 3 3 3 2 2 3 2 2 2 2 2 2 3 3 2 2 3 3 3 3 3 3 3 2 3 2 2
8 7 7 8 8 8 9 11 9 7 4 3 3 3 2 2 1 2 2 3 3 3 4 4 3 3 2 2 2 2 2 2 2 2 2 3 3 2 3 3 3 3 3 3 3 3 2 2 2
7 6 6 8 10 8 7 7 6 4 2 2 3 3 3 3 2 2 2 2 3 3 4 3 3 3 2 2 3 2 2 2 1 2 2 2 3 3 3 3 3 4 4 3 3 3 3 3 1
6 6 7 8 6 4 3 5 5 4 4 3 3 2 3 2 2 2 2 2 2 3 3 3 3 3 3 3 3 5 3 2 2 2 2 2 2 3 3 3 3 3 4 4 3 2 2 3 3
5 7 8 8 6 5 5 4 5 2 4 4 3 3 3 2 2 2 2 2 2 2 3 3 4 3 3 3 3 4 3 2 1 2 3 2 2 2 2 3 3 3 3 4 4 3 2 2 3
6 6 6 5 2 4 4 4 4 1 3 2 2 2 2 2 2 2 2 3 3 2 2 3 4 3 3 3 3 3 3 3 3 2 2 2 1 1 2 2 2 3 3 4 4 3 3 2 2
4 3 2 1 1 4 2 2 3 2 2 2 1 1 1 1 2 2 2 2 3 3 2 2 3 2 2 3 3 3 3 3 4 3 2 2 2 2 3 2 2 2 2 3 3 3 3 3 3
3 2 1 2 3 3 1 3 1 3 4 4 4 1 1 2 1 1 2 2 2 2 2 2 2 2 2 2 2 2 2 2 2 2 2 2 2 2 3 2 2 2 2 3 3 3 2 2 2
2 1 1 3 4 3 4 2 0 6 6 6 6 6 3 3 2 1 2 2 2 2 2 2 2 2 1 1 1 2 2 2 2 2 1 1 1 2 3 3 3 2 2 3 3 3 3 2 2
3 2 1 1 3 4 3 1 2 5 5 6 6 6 5 5 5 4 3 2 2 2 1 1 2 1 2 2 1 1 1 1 2 2 1 1 1 1 3 3 3 3 3 3 3 3 3 3 2
1 0 1 2 2 3 3 2 3 3 4 4 5 5 5 5 4 3 3 2 3 2 2 1 1 1 1 1 1 1 1 1 1 1 2 2 1 2 2 3 3 3 3 3 3 3 3 3 2
1 1 1 1 3 3 3 3 2 3 4 4 5 5 5 5 5 4 4 3 3 2 2 2 1 0 0 1 1 1 1 1 1 1 1 1 2 2 2 2 3 3 3 3 4 4 4 4 4
Wind_Direction
290 272 256 243 230 228 232 232 240 238 238 250 313 299 284 300 332 115 141 110 111 129 137 139 135 136 135 133 131 132 130 126 122 122 121 121 117 113 110 107 105 106 105 104 101 99 96 92 91
281 277 259 230 227 228 227 225 235 241 230 327 325 295 303 7 63 100 121 114 123 131 138 142 137 137 136 135 133 136 136 132 129 127 124 123 123 120 116 113 110 106 106 104 101 101 98 95 94
265 259 242 226 226 228 227 221 222 233 238 242 257 279 307 33 92 111 115 121 123 131 138 141 139 140 138 136 135 136 138 136 135 131 128 125 127 125 118 115 113 108 106 106 103 102 100 98 95
258 227 232 235 235 233 241 238 252 242 247 217 241 205 102 44 67 103 117 124 125 129 137 141 142 141 139 138 138 138 138 136 134 132 129 129 126 126 121 117 114 112 108 109 109 105 101 98 95
238 230 227 232 238 239 248 255 255 241 242 226 237 265 91 54 76 96 118 125 126 126 133 143 143 143 141 139 139 138 140 139 135 131 129 129 126 123 125 121 117 114 113 111 108 109 106 102 98
231 229 231 230 235 236 241 257 249 252 256 258 246 256 241 102 83 96 117 124 122 126 129 141 144 143 140 139 138 138 140 139 136 133 129 124 122 122 125 124 120 117 116 115 109 103 109 107 103
243 238 239 242 245 240 237 250 241 249 256 268 307 277 205 89 60 64 108 120 120 123 130 138 147 146 141 139 138 138 136 136 134 130 125 122 120 120 120 126 123 119 116 113 112 106 111 111 107
272 266 246 242 243 247 249 265 279 282 266 262 282 249 194 82 59 44 74 101 111 116 128 143 147 149 152 146 141 133 131 128 126 123 120 118 120 121 119 120 124 120 118 117 114 114 108 112 114
259 246 242 245 252 264 284 282 296 307 285 274 296 309 88 88 92 79 72 101 109 122 128 145 149 149 148 151 140 132 131 130 124 123 126 125 128 124 119 115 122 123 124 125 122 124 122 117 121
226 238 247 269 293 304 298 283 296 298 275 258 265 30 107 113 133 171 163 165 159 152 148 146 154 148 150 153 142 145 145 143 144 142 145 145 123 114 114 113 120 126 129 135 140 145 148 149 139
251 250 271 294 313 312 302 287 281 282 266 255 221 181 180 173 201 207 198 187 177 165 154 143 148 148 149 148 150 147 145 148 147 146 150 136 124 128 126 128 129 139 148 149 155 159 163 140 124
262 275 278 288 307 302 297 288 276 267 271 277 249 215 206 207 209 208 205 195 170 160 158 146 141 144 148 148 148 148 148 150 151 153 150 142 141 140 145 150 156 160 163 155 164 164 144 132 126
270 278 280 279 286 291 294 284 274 270 278 275 238 228 226 218 212 208 204 206 179 159 140 151 135 132 144 146 150 146 148 150 148 149 148 144 147 152 149 154 160 160 157 166 162 151 137 124 113
279 289 288 279 281 286 286 280 265 266 281 267 236 219 222 227 210 199 198 204 178 159 141 136 138 134 140 144 148 147 142 138 136 144 155 151 153 153 153 155 157 155 158 157 152 148 134 124 118
267 279 282 263 266 271 281 271 252 263 268 264 244 230 223 225 212 202 191 188 172 164 153 131 150 138 134 146 154 146 140 134 134 146 151 148 150 156 156 154 155 159 155 137 133 135 128 131 130
255 262 271 267 260 267 269 263 267 266 257 252 242 233 224 225 217 205 184 172 160 150 136 127 144 138 130 152 154 153 139 134 137 141 139 138 144 154 153 156 156 150 141 140 140 146 140 140 139
242 268 278 287 257 265 263 269 272 287 270 257 245 246 231 225 217 195 177 152 147 149 139 126 126 138 139 130 129 141 135 132 140 135 135 141 142 148 150 157 155 144 140 152 159 150 152 143 133
286 282 284 282 273 272 270 275 277 275 271 261 243 242 250 233 205 156 154 147 141 140 133 131 120 134 136 116 106 127 120 125 132 134 142 147 148 151 145 155 154 146 144 158 153 152 141 136 142
290 279 283 291 295 280 266 271 275 274 263 263 245 227 247 243 175 127 128 147 139 140 139 143 136 139 140 139 145 162 152 144 138 142 148 153 150 150 153 149 148 148 156 167 160 141 136 127 124
291 282 284 298 306 291 268 267 267 263 251 250 250 243 241 263 227 150 151 159 152 160 163 149 144 150 159 165 157 161 158 151 149 140 144 156 160 165 165 151 153 150 145 161 163 146 149 157 152
286 281 294 300 310 285 277 270 244 241 225 239 248 236 237 219 217 185 158 166 164 174 168 154 152 150 149 148 128 117 106 113 123 147 172 171 165 164 160 155 153 153 152 161 168 161 162 170 200
286 300 296 294 295 284 271 277 257 228 220 230 248 245 247 215 190 166 146 165 176 175 158 153 151 145 146 152 147 146 156 163 190 180 178 175 166 162 162 157 154 163 160 159 168 168 165 165 178
299 305 287 275 272 282 258 251 275 217 230 229 234 240 239 208 176 167 153 163 158 148 154 158 152 151 151 154 155 157 159 151 147 161 167 166 161 163 162 157 160 171 167 161 163 161 162 179 174
309 303 286 259 244 267 243 227 280 241 253 245 232 232 218 199 165 155 151 146 142 129 139 151 149 154 159 155 163 164 156 151 154 167 162 170 170 174 171 158 162 177 173 165 166 161 162 175 179
329 335 341 328 230 248 231 229 266 14 33 33 6 241 221 169 131 149 148 147 142 141 145 139 140 152 166 161 169 172 163 166 173 171 174 183 180 187 192 178 177 178 173 168 160 157 172 179 181
303 326 321 293 279 302 299 237 283 31 46 38 26 21 84 74 68 85 122 137 138 139 144 136 137 146 160 166 171 169 163 164 178 189 179 191 191 192 183 178 178 174 173 171 161 163 176 177 171
301 280 301 294 288 274 254 235 132 28 32 23 18 14 24 30 29 36 76 106 121 133 141 157 143 146 149 166 163 165 167 176 177 186 159 177 172 181 172 174 174 169 174 172 165 167 172 165 173
291 319 340 290 304 291 268 262 342 7 7 10 13 7 4 14 18 21 42 84 90 102 108 124 123 166 159 160 171 161 170 181 172 156 158 161 159 167 175 172 170 169 173 172 166 164 167 164 178
250 297 275 269 278 288 294 306 19 24 21 16 8 3 357 8 9 15 23 56 89 87 91 91 82 58 137 147 132 94 96 124 136 157 181 170 167 174 180 171 168 170 172 170 168 174 167 167 173
309 273 200 239 272 263 283 288 6 44 41 29 15 5 1 7 11 23 29 43 63 78 84 86 79 110 111 119 98 82 83 82 106 171 183 160 174 182 172 167 170 171 174 173 174 179 172 175 182